[[{"header":{"parameterUnit":"m.s-1","parameterCategory":1,"la1":30.2991,"la2":30.254,"lo1":-89.0895,"lo2":-89.0444,"dy":0.0017,"dx":0.0017,"nx":28,"ny":28,"refTime":"2024-07-16T03:00:00:Z","depth":0,"parameterNumber":2,"parameterNumberName":"U-component_of_WINDS"},"data":[0,0,0,0,0,0,0,0,0,0,0,0,0,0,0,0,0,0,0,0,0,0,0,0,0,0,0,0,0,0,0,0,0,0,0,0,0,0,0,0,0,0,0,0,0,0,0,0,0,0,0,0,0,0,0,0,0,0,0.4595,0.4596,0,0.4737,0.4738,0.474,0.4815,0.4815,0.4815,0.4816,0.4961,0.4965,0.4969,0,0,0,0,0,0,0,0,0,0,0,0,0,0.4388,0.4392,0.4595,0.4597,0.4598,0.4736,0.4738,0.474,0.4815,0.4815,0.4816,0.4816,0.496,0.4965,0.4969,0,0,0,0,0,0,0,0,0,0,0,0,0,0.4499,0.4393,0.4594,0.4652,0.4659,0.4736,0.4738,0.4741,0.4815,0.4815,0.4816,0.4816,0.4959,0.4964,0.497,0.5,0,0,0.4987,0.4989,0,0,0,0,0,0,0,0,0.4492,0.4506,0.4642,0.4648,0.4656,0.4758,0.4719,0.4828,0.4815,0.4756,0.4816,0.4816,0.4894,0.4905,0.4931,0.5007,0.5013,0.4987,0.4991,0.4993,0.4995,0,0,0,0,0,0,0,0.4484,0.45,0.4651,0.4644,0.4652,0.4671,0.4687,0.474,0.4822,0.4761,0.4767,0.4783,0.4898,0.4925,0.4935,0.5015,0.4987,0.4992,0.4996,0.4998,0.5122,0.5122,0,0,0,0,0,0,0.4468,0.4494,0.4646,0.4655,0.4573,0.4674,0.4692,0.4725,0.4822,0.4836,0.4782,0.4786,0.4916,0.4928,0.494,0.4981,0.4993,0.4999,0.5002,0.5122,0.5122,0.5122,0,0,0,0,0,0,0.4463,0.448,0.4641,0.4576,0.4598,0.4678,0.4714,0.4728,0.4756,0.4838,0.4853,0.4795,0.4916,0.4932,0.4984,0.4987,0.5001,0.5006,0.5122,0.5122,0.5122,0.5064,0,0,0,0,0,0,0.4457,0.4478,0.4491,0.4576,0.4601,0.4682,0.4715,0.4731,0.4765,0.4771,0.4854,0.4868,0.4918,0.4975,0.499,0.4995,0.5011,0.5122,0.5122,0.5122,0.5066,0.5062,0.5058,0,0,0,0,0,0.4449,0.447,0.4491,0.4509,0.4619,0.4682,0.4697,0.4754,0.4765,0.4778,0.483,0.4865,0.4985,0.498,0.4997,0.5004,0.5122,0.5122,0.5122,0.5068,0.5063,0.5058,0,0,0,0,0,0,0.4384,0.4482,0.4507,0.4556,0.461,0.4695,0.4714,0.4747,0.4799,0.4802,0.487,0.4889,0.4934,0.4975,0.4968,0.5038,0.5057,0.506,0.501,0.5006,0.5002,0.4991,0.5015,0,0,0,0,0,0.4375,0.4419,0.4502,0.4537,0.4563,0.4633,0.4663,0.4702,0.4761,0.4785,0.4841,0.4897,0.4947,0.4979,0.503,0.5072,0.5091,0.5085,0.5081,0.5078,0.508,0.5104,0.5102,0.5121,0.5121,0.5121,0,0,0.4357,0.4416,0.444,0.4525,0.4572,0.4615,0.4652,0.4697,0.473,0.4792,0.4844,0.4887,0.4954,0.5,0.5024,0.5036,0.5078,0.5078,0.5074,0.5078,0.5103,0.5102,0.51,0.5121,0.5121,0.5121,0,0,0.4348,0.4397,0.4431,0.4476,0.4546,0.4593,0.46,0.468,0.4711,0.4764,0.4811,0.4851,0.4936,0.4982,0.5016,0.5021,0.5054,0.5035,0.5016,0.5038,0.5037,0.5036,0.5036,0.5036,0.5037,0.5037,0.5037,0,0.4317,0.4385,0.4444,0.4486,0.4521,0.4578,0.4613,0.4654,0.4737,0.476,0.4772,0.4879,0.4928,0.4986,0.4986,0.5013,0.5023,0.5026,0.5032,0.5032,0.5032,0.5033,0.5033,0.5034,0.5034,0.5035,0.5035,0,0.4343,0.4389,0.4408,0.4486,0.4523,0.4561,0.4625,0.4656,0.4691,0.4736,0.4788,0.4849,0.4913,0.4929,0.4964,0.4991,0.4996,0.5019,0.504,0.5026,0.5028,0.503,0.503,0.5031,0.5032,0.5032,0,0,0.4297,0.4406,0.4412,0.4447,0.4528,0.4564,0.4604,0.4665,0.469,0.4745,0.4779,0.4849,0.487,0.4909,0.4949,0.4969,0.4967,0.4989,0.4992,0.4982,0.5,0.4982,0.4981,0.499,0.499,0.4991,0.4994,0,0.4299,0.4373,0.4426,0.448,0.4522,0.4576,0.461,0.4663,0.4705,0.4747,0.4794,0.4842,0.4867,0.489,0.4912,0.4963,0.4972,0.4963,0.5022,0.5023,0.5003,0.4983,0.4965,0.4965,0.4995,0.4995,0.4996,0,0.4311,0.4362,0.4419,0.4494,0.4514,0.4544,0.4603,0.4643,0.4703,0.4733,0.4774,0.4815,0.4859,0.4875,0.4935,0.4928,0.4955,0.4983,0.4985,0.4992,0.5009,0.4989,0.4967,0.4966,0.4998,0.4998,0.4998,0,0.427,0.4355,0.44,0.4428,0.4516,0.4536,0.4573,0.4634,0.4667,0.4719,0.474,0.4797,0.4828,0.487,0.4925,0.4931,0.4979,0.5,0.5004,0.5002,0.5012,0.501,0.4992,0.5029,0.5029,0.5029,0.5029,0,0.4266,0.4299,0.4382,0.441,0.4448,0.4508,0.4544,0.4586,0.4639,0.4675,0.4725,0.4758,0.4828,0.4869,0.4912,0.4955,0.4969,0.4993,0.5004,0.4989,0.4985,0.5007,0.5008,0.503,0.503,0.503,0.5029,0,0.4228,0.4286,0.4338,0.4416,0.4437,0.4461,0.4528,0.4556,0.46,0.4645,0.4659,0.4729,0.478,0.4838,0.4909,0.4937,0.4976,0.4993,0.4956,0.4962,0.4963,0.4961,0.4958,0.496,0.4995,0.4995,0.4995,0,0.4221,0.4248,0.4329,0.4356,0.4392,0.4436,0.4469,0.453,0.4562,0.4632,0.4651,0.4705,0.4752,0.483,0.4887,0.494,0.4958,0.4953,0.4967,0.495,0.4957,0.4955,0.4957,0.4949,0.4949,0.4948,0.4948,0,0.4203,0.423,0.4276,0.4332,0.437,0.4417,0.4466,0.4485,0.4555,0.4589,0.4641,0.4677,0.4748,0.4801,0.4861,0.4899,0.4935,0.4943,0.4947,0.4931,0.4908,0.4919,0.4945,0.4943,0.4943,0.4944,0.4944,0.4944,0.4181,0.4206,0.4266,0.4316,0.4358,0.4402,0.4432,0.448,0.4524,0.4586,0.4619,0.467,0.4728,0.4812,0.4849,0.489,0.4902,0.4907,0.4909,0.4909,0.4904,0.4901,0.4901,0.4901,0.4901,0.4901,0.4902,0,0.4165,0.4206,0.425,0.4317,0.4355,0.4384,0.4439,0.4469,0.4513,0.4565,0.4609,0.4668,0.4719,0.4778,0.4833,0.4854,0.4871,0.4866,0.4865,0.4873,0.489,0.4881,0.4851,0.4851,0.4851,0.4851,0.4851,0.4851,0.4161,0.4204,0.4238,0.4303,0.4344,0.4394,0.4422,0.4463,0.4504,0.4567,0.4609,0.4648,0.4702,0.4761,0.4808,0.4824,0.4842,0.4832,0.4852,0.4868,0.4872,0.4876,0.4868,0.4835,0.4835,0.4832,0.4832,0.4832]},{"header":{"parameterUnit":"m.s-1","parameterCategory":1,"la1":30.2991,"la2":30.254,"lo1":-89.0895,"lo2":-89.0444,"dy":0.0017,"dx":0.0017,"nx":28,"ny":28,"refTime":"2024-07-16T03:00:00:Z","depth":0,"parameterNumber":3,"parameterNumberName":"V-component_of_WINDS"},"data":[0,0,0,0,0,0,0,0,0,0,0,0,0,0,0,0,0,0,0,0,0,0,0,0,0,0,0,0,0,0,0,0,0,0,0,0,0,0,0,0,0,0,0,0,0,0,0,0,0,0,0,0,0,0,0,0,0,0,4.7264,4.7264,0,4.7235,4.7235,4.7235,4.7229,4.7229,4.7229,4.7229,4.7194,4.7193,4.7192,0,0,0,0,0,0,0,0,0,0,0,0,0,4.7311,4.731,4.7264,4.7264,4.7264,4.7235,4.7235,4.7234,4.7229,4.7229,4.7229,4.723,4.7195,4.7193,4.7192,0,0,0,0,0,0,0,0,0,0,0,0,0,4.7287,4.731,4.7264,4.7257,4.7257,4.7235,4.7235,4.7234,4.7229,4.7229,4.7229,4.723,4.7195,4.7193,4.7192,4.7174,0,0,4.7186,4.7186,0,0,0,0,0,0,0,0,4.7289,4.7285,4.7259,4.7258,4.7257,4.7236,4.7239,4.7214,4.7228,4.7239,4.7229,4.723,4.7208,4.7205,4.7198,4.7172,4.7171,4.7186,4.7185,4.7185,4.7184,0,0,0,0,0,0,0,4.729,4.7287,4.7253,4.7258,4.7257,4.7255,4.7252,4.7234,4.7221,4.7238,4.7238,4.7235,4.7207,4.72,4.7198,4.717,4.7186,4.7185,4.7184,4.7183,4.7129,4.7129,0,0,0,0,0,0,4.7294,4.7288,4.7254,4.7252,4.7274,4.7253,4.725,4.7242,4.7222,4.7219,4.7234,4.7234,4.7203,4.72,4.7196,4.7175,4.7185,4.7183,4.7182,4.7129,4.7129,4.7128,0,0,0,0,0,0,4.7295,4.7291,4.7255,4.727,4.7265,4.7252,4.7244,4.7242,4.7235,4.7219,4.7216,4.723,4.7203,4.7199,4.718,4.7173,4.7182,4.7181,4.713,4.7129,4.7129,4.7131,0,0,0,0,0,0,4.7296,4.7291,4.7285,4.727,4.7264,4.724,4.7243,4.7241,4.7232,4.7232,4.7214,4.7211,4.7203,4.7183,4.7178,4.7171,4.7179,4.713,4.713,4.7129,4.7131,4.7131,4.713,0,0,0,0,0,4.7298,4.7285,4.7285,4.7281,4.7257,4.724,4.7237,4.7229,4.7232,4.7225,4.7215,4.7212,4.7175,4.7181,4.7176,4.7168,4.7131,4.713,4.7129,4.7132,4.7131,4.713,0,0,0,0,0,0,4.7298,4.7283,4.7282,4.7265,4.7254,4.7239,4.723,4.7228,4.7214,4.7215,4.7204,4.72,4.7182,4.7173,4.718,4.715,4.7153,4.7151,4.7157,4.7156,4.7155,4.7157,4.7178,0,0,0,0,0,4.7296,4.7285,4.7272,4.7258,4.7253,4.7243,4.7235,4.7231,4.7218,4.7213,4.7201,4.7188,4.7174,4.7164,4.715,4.713,4.7126,4.7123,4.7122,4.7121,4.7119,4.7109,4.7107,4.7125,4.7125,4.7126,0,0,4.7292,4.7283,4.7276,4.7258,4.7249,4.7237,4.7239,4.7225,4.7216,4.721,4.7192,4.7184,4.7168,4.715,4.7141,4.7141,4.7114,4.712,4.712,4.7118,4.7108,4.7106,4.7105,4.7125,4.7125,4.7125,0,0,4.7278,4.727,4.7258,4.7249,4.7237,4.723,4.7227,4.7213,4.7208,4.7191,4.7186,4.7174,4.7149,4.7139,4.713,4.7115,4.7111,4.711,4.7105,4.7096,4.7094,4.7093,4.7087,4.7086,4.7109,4.7109,4.7109,0,4.7274,4.7257,4.7251,4.7239,4.7231,4.7228,4.7215,4.7207,4.7189,4.7183,4.7185,4.7155,4.7144,4.7123,4.712,4.7113,4.7109,4.7112,4.7095,4.7094,4.7092,4.7087,4.7085,4.7109,4.7109,4.7109,4.7109,0,4.7252,4.724,4.7232,4.7218,4.7209,4.7196,4.7188,4.718,4.7177,4.717,4.7152,4.714,4.7123,4.7118,4.7113,4.7097,4.7098,4.7097,4.71,4.7091,4.7086,4.7083,4.7109,4.7109,4.7109,4.7109,0,0,4.7236,4.7221,4.7217,4.7211,4.7198,4.7188,4.7175,4.7162,4.7155,4.7143,4.7132,4.7112,4.7112,4.7102,4.7097,4.7088,4.7077,4.7089,4.7089,4.7087,4.7058,4.7059,4.7056,4.7075,4.7075,4.7075,4.706,0,4.722,4.7199,4.7195,4.7176,4.7165,4.7163,4.7152,4.7142,4.7135,4.7124,4.7116,4.7103,4.7104,4.7098,4.709,4.7081,4.7071,4.7082,4.7064,4.7063,4.7068,4.7054,4.7053,4.704,4.7058,4.7057,4.7057,0,4.7199,4.719,4.717,4.716,4.7155,4.7145,4.7133,4.7123,4.7111,4.7107,4.7098,4.7094,4.7079,4.7083,4.7064,4.7071,4.7063,4.7058,4.7057,4.7055,4.7059,4.7051,4.7035,4.7033,4.7054,4.7054,4.7054,0,4.719,4.7172,4.7158,4.7153,4.714,4.7133,4.7127,4.7117,4.7109,4.7098,4.7093,4.7079,4.7072,4.7061,4.7053,4.7057,4.7034,4.7037,4.703,4.703,4.7024,4.7024,4.7007,4.702,4.702,4.702,4.702,0,4.7172,4.7161,4.7154,4.7146,4.7132,4.7127,4.7114,4.7108,4.7099,4.7088,4.7085,4.7075,4.7066,4.7054,4.7048,4.7033,4.7029,4.7025,4.7023,4.7025,4.7026,4.7019,4.702,4.7019,4.702,4.702,4.702,0,4.7159,4.7154,4.7139,4.7129,4.7127,4.7117,4.7108,4.7099,4.7094,4.7081,4.7077,4.7068,4.7055,4.7046,4.7028,4.7024,4.7008,4.7006,4.7012,4.7011,4.7004,4.7005,4.6982,4.6979,4.6994,4.6994,4.6994,0,4.7148,4.714,4.713,4.7124,4.7118,4.7108,4.7101,4.7096,4.7088,4.7076,4.7068,4.7056,4.7045,4.7023,4.7014,4.7001,4.6999,4.6992,4.6997,4.6999,4.6999,4.7,4.6999,4.6991,4.6991,4.6991,4.6991,0,4.713,4.7129,4.7119,4.711,4.7102,4.7093,4.7085,4.708,4.7073,4.7065,4.7052,4.7044,4.7028,4.7015,4.7001,4.6993,4.6991,4.699,4.6987,4.6989,4.6992,4.699,4.701,4.699,4.699,4.699,4.699,4.699,4.7117,4.711,4.7102,4.7093,4.7086,4.7079,4.7071,4.7065,4.7055,4.7043,4.704,4.7027,4.7016,4.6998,4.6991,4.698,4.698,4.6977,4.6976,4.6975,4.6975,4.6995,4.6977,4.6977,4.6977,4.6977,4.6977,0,4.7099,4.7095,4.7086,4.7075,4.7067,4.7068,4.7059,4.7052,4.7041,4.7033,4.7023,4.7009,4.6997,4.6987,4.6975,4.6968,4.6966,4.6965,4.6965,4.6963,4.6975,4.6978,4.6966,4.6966,4.6966,4.6966,4.6966,4.6966,4.7089,4.7077,4.7074,4.7059,4.7054,4.7043,4.7038,4.7031,4.7024,4.7009,4.7,4.6995,4.6986,4.6973,4.6962,4.6959,4.6954,4.6953,4.695,4.6961,4.6962,4.6963,4.6967,4.6952,4.6952,4.6939,4.6939,4.6939]}]]